TOM1LJ EGKK-LEIB

Flight info

Callsign TOM1LJ
Flight time N/A
Altitude 35000
Route SFD Y47 DRAKE L151 SITET UN859 SOPIL DCT BALAN DCT EVPOK DCT NARAK DCT GAI DCT LOMRA DCT ROCAN/N0415F310 DCT PUMAL DCT XEPLA DCT BCN DCT CORDA
Aircraft B38M/M-SDE1FGHILORVWXY/HB1

Departure

Time N/A
Airport London Gatwick Airport (EGKK)

Arrival

Time 2026-05-07 18:09
Airport Ibiza Airport (LEIB)
Time Latitude Longitude Altitude Speed Heading
2026-05-07 16:51 46.27347 1.11438 34965 ft 442 kts 171°
2026-05-07 16:52 46.22385 1.13086 34956 ft 441 kts 171°
2026-05-07 16:52 46.16391 1.15074 34960 ft 442 kts 171°
2026-05-07 16:53 46.10410 1.17052 34959 ft 441 kts 171°
2026-05-07 16:53 46.04431 1.19025 34946 ft 441 kts 171°
2026-05-07 16:54 45.98450 1.20995 34968 ft 442 kts 171°
2026-05-07 16:54 45.92454 1.22965 34960 ft 441 kts 171°
2026-05-07 16:55 45.86476 1.24925 34968 ft 441 kts 171°
2026-05-07 16:55 45.80493 1.26882 34966 ft 441 kts 171°
2026-05-07 16:56 45.74522 1.28832 34962 ft 441 kts 171°
2026-05-07 16:56 45.65555 1.31750 34953 ft 440 kts 171°
2026-05-07 16:57 45.59578 1.33690 34954 ft 440 kts 171°
2026-05-07 16:57 45.53614 1.35623 34952 ft 440 kts 171°
2026-05-07 16:58 45.47653 1.37549 34953 ft 440 kts 171°
2026-05-07 16:58 45.41679 1.39476 34952 ft 440 kts 171°
2026-05-07 16:59 45.35673 1.41409 34946 ft 440 kts 171°
2026-05-07 16:59 45.29743 1.43312 34959 ft 440 kts 171°
2026-05-07 17:00 45.23787 1.45221 34955 ft 439 kts 171°
2026-05-07 17:00 45.17830 1.47125 34960 ft 439 kts 171°
2026-05-07 17:01 45.11868 1.49029 34960 ft 439 kts 171°
2026-05-07 17:01 45.05868 1.50938 34966 ft 439 kts 171°
2026-05-07 17:02 44.99959 1.52815 34964 ft 439 kts 171°
2026-05-07 17:02 44.93955 1.54718 34951 ft 440 kts 171°
2026-05-07 17:03 44.87985 1.56607 34950 ft 440 kts 171°
2026-05-07 17:03 44.81982 1.58043 34945 ft 433 kts 183°
2026-05-07 17:04 44.75959 1.58111 34947 ft 434 kts 182°
2026-05-07 17:04 44.69916 1.58274 34941 ft 434 kts 182°
2026-05-07 17:05 44.63881 1.58440 34960 ft 434 kts 182°
2026-05-07 17:05 44.57841 1.58606 34930 ft 433 kts 182°
2026-05-07 17:06 44.51821 1.58772 34937 ft 434 kts 182°
2026-05-07 17:06 44.45787 1.58937 34935 ft 433 kts 182°
2026-05-07 17:07 44.39758 1.59102 34938 ft 434 kts 182°
2026-05-07 17:07 44.33735 1.59266 34933 ft 433 kts 182°
2026-05-07 17:08 44.27720 1.59431 34949 ft 433 kts 182°
2026-05-07 17:08 44.21705 1.59594 34937 ft 433 kts 182°
2026-05-07 17:09 44.15687 1.59757 34932 ft 432 kts 182°
2026-05-07 17:09 44.09674 1.59920 34926 ft 432 kts 182°
2026-05-07 17:10 44.03664 1.60083 34929 ft 432 kts 182°
2026-05-07 17:10 43.97656 1.60245 34928 ft 431 kts 182°
2026-05-07 17:11 43.91663 1.60406 34933 ft 431 kts 182°
2026-05-07 17:11 43.85899 1.60561 34933 ft 431 kts 182°
2026-05-07 17:12 43.79914 1.60721 34937 ft 431 kts 182°
2026-05-07 17:12 43.73932 1.60881 34926 ft 430 kts 182°
2026-05-07 17:13 43.67952 1.61041 34944 ft 430 kts 182°
2026-05-07 17:13 43.61975 1.61200 34928 ft 429 kts 182°
2026-05-07 17:14 43.56004 1.61359 34921 ft 428 kts 182°
2026-05-07 17:14 43.50054 1.61517 34919 ft 428 kts 182°
2026-05-07 17:15 43.44101 1.61675 34927 ft 429 kts 182°
2026-05-07 17:15 43.38142 1.61832 34919 ft 427 kts 182°
2026-05-07 17:16 43.32213 1.61989 34921 ft 426 kts 182°
2026-05-07 17:16 43.26286 1.62145 34922 ft 426 kts 182°
2026-05-07 17:17 43.20355 1.62301 34921 ft 426 kts 182°
2026-05-07 17:17 43.14447 1.62456 34923 ft 424 kts 182°
2026-05-07 17:18 43.08545 1.62611 34932 ft 424 kts 182°
2026-05-07 17:18 43.02650 1.62764 34929 ft 424 kts 182°
2026-05-07 17:19 42.96786 1.62918 34933 ft 418 kts 183°
2026-05-07 17:19 42.90979 1.63069 34927 ft 417 kts 183°
2026-05-07 17:20 42.85182 1.63220 34932 ft 417 kts 183°
2026-05-07 17:20 42.79381 1.63370 34887 ft 417 kts 183°
2026-05-07 17:21 42.73592 1.63519 34984 ft 418 kts 183°
2026-05-07 17:21 42.67782 1.63670 34937 ft 417 kts 183°
2026-05-07 17:22 42.61977 1.63820 34924 ft 417 kts 183°
2026-05-07 17:22 42.56182 1.63968 34928 ft 415 kts 183°
2026-05-07 17:23 42.50420 1.64117 34931 ft 415 kts 183°
2026-05-07 17:23 42.44647 1.64265 34953 ft 415 kts 183°
2026-05-07 17:24 42.38875 1.64413 34928 ft 415 kts 183°
2026-05-07 17:24 42.33145 1.64559 34944 ft 412 kts 183°
2026-05-07 17:25 42.27420 1.64706 34934 ft 411 kts 183°
2026-05-07 17:25 42.21688 1.64851 34940 ft 412 kts 183°
2026-05-07 17:26 42.15960 1.64997 34970 ft 410 kts 183°
2026-05-07 17:26 42.10287 1.65140 34950 ft 408 kts 183°
2026-05-07 17:27 42.04619 1.65284 34943 ft 407 kts 183°
2026-05-07 17:27 41.98951 1.65427 34951 ft 407 kts 183°
2026-05-07 17:28 41.93295 1.65570 34961 ft 406 kts 183°
2026-05-07 17:28 41.87662 1.65712 34958 ft 405 kts 183°
2026-05-07 17:29 41.82018 1.65854 34955 ft 405 kts 183°
2026-05-07 17:29 41.76390 1.65995 34965 ft 406 kts 183°
2026-05-07 17:30 41.70749 1.66137 34963 ft 405 kts 183°
2026-05-07 17:30 41.66026 1.66255 34960 ft 405 kts 183°
2026-05-07 17:31 41.60389 1.66396 34956 ft 405 kts 183°
2026-05-07 17:31 41.54754 1.66536 34945 ft 406 kts 183°
2026-05-07 17:32 41.49104 1.66677 34956 ft 406 kts 183°
2026-05-07 17:32 41.43451 1.66817 34957 ft 406 kts 183°
2026-05-07 17:33 41.37800 1.66957 34961 ft 406 kts 183°
2026-05-07 17:33 41.32141 1.67098 34951 ft 407 kts 183°
2026-05-07 17:34 41.26483 1.67237 34967 ft 408 kts 183°
2026-05-07 17:34 41.20808 1.67377 34965 ft 408 kts 183°
2026-05-07 17:35 41.15140 1.67517 34963 ft 408 kts 183°
2026-05-07 17:35 41.09461 1.67657 34956 ft 408 kts 183°
2026-05-07 17:36 41.03792 1.67796 34959 ft 408 kts 183°
2026-05-07 17:36 40.98113 1.67935 34949 ft 408 kts 183°
2026-05-07 17:37 40.92437 1.68074 34960 ft 408 kts 183°
2026-05-07 17:37 40.86751 1.68213 34951 ft 410 kts 183°
2026-05-07 17:38 40.81042 1.68352 34953 ft 410 kts 183°
2026-05-07 17:38 40.75345 1.68490 34955 ft 410 kts 183°
2026-05-07 17:39 40.69633 1.68629 34952 ft 410 kts 183°
2026-05-07 17:39 40.63925 1.68768 34949 ft 410 kts 183°
2026-05-07 17:40 40.58221 1.68906 34952 ft 410 kts 183°
2026-05-07 17:40 40.52520 1.69044 34947 ft 410 kts 183°
2026-05-07 17:41 40.46809 1.69181 34947 ft 410 kts 183°
2026-05-07 17:41 40.41090 1.69319 34944 ft 412 kts 182°
2026-05-07 17:42 40.35362 1.69457 34942 ft 412 kts 182°
2026-05-07 17:42 40.29646 1.69594 34941 ft 412 kts 182°
2026-05-07 17:43 40.23916 1.69731 34926 ft 412 kts 182°
2026-05-07 17:43 40.18161 1.69869 34937 ft 415 kts 182°
2026-05-07 17:44 40.12390 1.70007 34941 ft 415 kts 182°
2026-05-07 17:44 40.06616 1.70145 34938 ft 415 kts 182°
2026-05-07 17:45 40.00855 1.70282 34915 ft 415 kts 182°
2026-05-07 17:45 39.95046 1.70420 34931 ft 419 kts 182°
2026-05-07 17:46 39.89222 1.70558 34656 ft 415 kts 182°
2026-05-07 17:46 39.86335 1.70629 33994 ft 414 kts 182°
2026-05-07 17:46 39.83465 1.70697 33309 ft 412 kts 181°
2026-05-07 17:47 39.80612 1.70764 32554 ft 410 kts 181°
2026-05-07 17:47 39.77760 1.70831 31748 ft 411 kts 181°
2026-05-07 17:47 39.74896 1.70899 30949 ft 414 kts 180°
2026-05-07 17:47 39.71989 1.70968 30123 ft 421 kts 180°
2026-05-07 17:48 39.69048 1.71036 29126 ft 423 kts 180°
2026-05-07 17:48 39.66110 1.71105 28297 ft 425 kts 179°
2026-05-07 17:48 39.63123 1.71175 27645 ft 431 kts 179°
2026-05-07 17:48 39.60123 1.71246 26986 ft 432 kts 179°
2026-05-07 17:49 39.57123 1.71316 26322 ft 430 kts 179°
2026-05-07 17:49 39.54154 1.71385 25660 ft 427 kts 180°
2026-05-07 17:49 39.51190 1.71455 25010 ft 424 kts 180°
2026-05-07 17:49 39.48259 1.71524 24368 ft 419 kts 180°
2026-05-07 17:50 39.45353 1.71592 23727 ft 416 kts 180°
2026-05-07 17:50 39.42431 1.71660 23012 ft 413 kts 179°
2026-05-07 17:50 39.39609 1.71727 22350 ft 409 kts 179°
2026-05-07 17:50 39.36775 1.71793 21723 ft 405 kts 179°
2026-05-07 17:51 39.33976 1.71858 21122 ft 401 kts 179°
2026-05-07 17:51 39.31200 1.71923 20508 ft 397 kts 179°
2026-05-07 17:51 39.28455 1.71987 19924 ft 394 kts 179°
2026-05-07 17:51 39.25690 1.72051 19325 ft 391 kts 179°
2026-05-07 17:52 39.22988 1.71732 18612 ft 392 kts 193°
2026-05-07 17:52 39.20489 1.70354 18054 ft 392 kts 210°
2026-05-07 17:52 39.18401 1.68096 17437 ft 393 kts 225°
2026-05-07 17:52 39.16655 1.65399 16827 ft 391 kts 228°
2026-05-07 17:53 39.14962 1.62663 16252 ft 389 kts 229°
2026-05-07 17:53 39.13304 1.59930 15691 ft 386 kts 230°
2026-05-07 17:53 39.11665 1.57201 15139 ft 384 kts 230°
2026-05-07 17:53 39.10038 1.54476 14593 ft 382 kts 230°
2026-05-07 17:54 39.08430 1.51774 14061 ft 381 kts 231°
2026-05-07 17:54 39.06824 1.49074 13510 ft 379 kts 231°
2026-05-07 17:54 39.05228 1.46390 12966 ft 376 kts 231°
2026-05-07 17:54 39.03685 1.43735 12698 ft 366 kts 232°
2026-05-07 17:55 39.02195 1.41156 12552 ft 353 kts 232°
2026-05-07 17:55 39.00754 1.38670 12393 ft 341 kts 232°
2026-05-07 17:55 38.99354 1.36257 12221 ft 331 kts 231°
2026-05-07 17:55 38.97995 1.33916 12043 ft 322 kts 231°
2026-05-07 17:56 38.96676 1.31645 11890 ft 313 kts 232°
2026-05-07 17:56 38.95392 1.29440 11725 ft 304 kts 231°
2026-05-07 17:56 38.94152 1.27307 11587 ft 295 kts 231°
2026-05-07 17:56 38.92943 1.25232 11441 ft 286 kts 232°
2026-05-07 17:57 38.91768 1.23216 11294 ft 278 kts 232°
2026-05-07 17:57 38.91010 1.21915 11207 ft 272 kts 231°
2026-05-07 17:57 38.89523 1.19363 11015 ft 262 kts 231°
2026-05-07 17:57 38.88493 1.17479 10840 ft 256 kts 239°
2026-05-07 17:58 38.87674 1.15449 10545 ft 256 kts 240°
2026-05-07 17:58 38.86850 1.13428 10241 ft 255 kts 241°
2026-05-07 17:58 38.86018 1.11417 9940 ft 255 kts 241°
2026-05-07 17:58 38.85179 1.09416 9621 ft 255 kts 240°
2026-05-07 17:59 38.84335 1.07414 9291 ft 254 kts 240°
2026-05-07 17:59 38.83492 1.05428 8995 ft 253 kts 241°
2026-05-07 17:59 38.82651 1.03450 8698 ft 252 kts 241°
2026-05-07 17:59 38.81823 1.01469 8384 ft 252 kts 242°
2026-05-07 18:00 38.80997 0.99494 8072 ft 252 kts 242°
2026-05-07 18:00 38.80172 0.97525 7794 ft 250 kts 242°
2026-05-07 18:00 38.79309 0.95591 7496 ft 250 kts 233°
2026-05-07 18:00 38.78094 0.94010 7183 ft 250 kts 223°
2026-05-07 18:01 38.76829 0.92508 6996 ft 245 kts 224°
2026-05-07 18:01 38.75505 0.91179 6734 ft 243 kts 204°
2026-05-07 18:01 38.73853 0.90712 6330 ft 246 kts 176°
2026-05-07 18:01 38.72272 0.91406 5993 ft 241 kts 140°
2026-05-07 18:02 38.70798 0.94940 5729 ft 226 kts 98°
2026-05-07 18:02 38.70867 0.96908 5597 ft 221 kts 71°
2026-05-07 18:02 38.71440 0.98728 5515 ft 222 kts 63°
2026-05-07 18:03 38.72109 1.00509 5328 ft 222 kts 62°
2026-05-07 18:03 38.72806 1.02274 5080 ft 221 kts 61°
2026-05-07 18:03 38.73508 1.04011 4854 ft 218 kts 60°
2026-05-07 18:03 38.74208 1.05720 4638 ft 215 kts 60°
2026-05-07 18:04 38.74903 1.07405 4430 ft 212 kts 59°
2026-05-07 18:04 38.75588 1.09061 4212 ft 210 kts 60°
2026-05-07 18:04 38.76280 1.10733 4017 ft 213 kts 59°
2026-05-07 18:04 38.76975 1.12409 3842 ft 213 kts 59°
2026-05-07 18:05 38.77670 1.14085 3642 ft 213 kts 60°
2026-05-07 18:05 38.78362 1.15760 3431 ft 211 kts 59°
2026-05-07 18:05 38.79051 1.17424 3180 ft 212 kts 59°
2026-05-07 18:05 38.79738 1.19081 2907 ft 210 kts 58°
2026-05-07 18:06 38.80421 1.20730 2623 ft 209 kts 59°
2026-05-07 18:06 38.81100 1.22370 2348 ft 207 kts 59°
2026-05-07 18:06 38.81771 1.23992 2067 ft 205 kts 59°
2026-05-07 18:06 38.82429 1.25583 1826 ft 196 kts 58°
2026-05-07 18:07 38.83035 1.27048 1572 ft 176 kts 58°
2026-05-07 18:07 38.83590 1.28391 1338 ft 162 kts 56°
2026-05-07 18:07 38.84101 1.29623 1129 ft 152 kts 57°
2026-05-07 18:07 38.84579 1.30780 928 ft 143 kts 56°
2026-05-07 18:08 38.84883 1.31513 820 ft 139 kts 57°
2026-05-07 18:08 38.85336 1.32596 584 ft 140 kts 59°
2026-05-07 18:08 38.85811 1.33776 453 ft 154 kts 61°
2026-05-07 18:08 38.86313 1.34966 241 ft 145 kts 59°
2026-05-07 18:09 38.86764 1.36063 25 ft 136 kts 58°
2026-05-07 18:09 38.87130 1.36939 15 ft 74 kts 62°
2026-05-07 18:09 38.87324 1.37377 12 ft 45 kts 48°
2026-05-07 18:09 38.87483 1.37523 12 ft 7 kts 32°
2026-05-07 18:10 38.87518 1.37552 11 ft 4 kts 25°
2026-05-07 18:10 38.87548 1.37524 11 ft 9 kts 278°
2026-05-07 18:10 38.87520 1.37437 12 ft 12 kts 243°
2026-05-07 18:10 38.87475 1.37328 11 ft 16 kts 242°
2026-05-07 18:11 38.87424 1.37202 11 ft 10 kts 242°
2026-05-07 18:11 38.87410 1.37154 11 ft 4 kts 287°
2026-05-07 18:11 38.87434 1.37133 11 ft 7 kts 331°
2026-05-07 18:11 38.87486 1.37097 11 ft 2 kts 332°
2026-05-07 18:12 38.87493 1.37093 11 ft 0 kts 332°